Location: Krakow
(50.0212°N, 19.9423°E)
Time: 23:48:33
(UTC+02:00)

NOAA 18 - Pass Details

Date: 21 August 2024
Orbit: 837 x 859 km, 98.9° (Epoch: 19 September)

Event Time Altitude Azimuth Distance (km) Brightness Sun altitude
Exits shadow 22:19:07 41° 136° (SE) 1,229 5.5 -20.7°
Maximum altitude 22:21:00 66° 70° (ENE) 935 5.3 -20.9°
Drops below altitude 10° 22:26:31 10° 349° (N) 2,506 8.6 -21.4°
Sets 22:28:55 0° 347° (NNW) 3,446 9.5 -21.6°
